General Downing - Peoria International Airport (PIA)


Airport Diagram
Current Weather/Forecast (VFR Conditions)
METAR KPIA 271454Z 24012G18KT 10SM CLR M01/M08 A3015 RMK AO2 SLP218 T10111083 50003
TAF KPIA 271120Z 2712/2812 20011KT P6SM BKN050 FM271300 23010G20KT P6SM BKN100 FM272000 30009KT P6SM BKN025 FM280200 33009KT P6SM BKN035 FM280800 36008KT P6SM SCT050

All Charts
General
Chart Name Download
AIRPORT DIAGRAM
TAKEOFF MINIMUMS
ALTERNATE MINIMUMS
HOT SPOT

Approaches
Chart Name Download
HI-ILS OR LOC RWY 31
ILS OR LOC RWY 04
ILS OR LOC RWY 13
ILS OR LOC RWY 31
ILS RWY 04 (SA CAT I - II)
RNAV (GPS) RWY 04
RNAV (GPS) RWY 13
RNAV (GPS) RWY 22
RNAV (GPS) RWY 31
VOR/DME OR TACAN RWY 31
HI-VOR OR TACAN RWY 31
VOR OR TACAN RWY 13
NDB RWY 31